This is the latest recevied weather packets stored in our database for station/object KC0UFP. If no packets are shown the sender has not sent any weather packets the latest 10 day(s).
| Time | Temp. | Humidity | Pressure | Rain* | Wind** | Luminosity | Snow |
|---|---|---|---|---|---|---|---|
| 1777850016 | 22.78° C | 40% | 1014.7 hPa | 0 mm | - | 201 W/m² | - |
| 1777849712 | 22.78° C | 39% | 1014.4 hPa | 0 mm | - | 219 W/m² | - |
| 1777849409 | 22.78° C | 39% | 1014.4 hPa | 0 mm | - | 238 W/m² | - |
| 1777849107 | 22.78° C | 39% | 1014.4 hPa | 0 mm | - | 257 W/m² | - |
| 1777848802 | 22.78° C | 37% | 1014.4 hPa | 0 mm | - | 277 W/m² | - |
| 1777848499 | 22.78° C | 37% | 1014.7 hPa | 0 mm | - | 299 W/m² | - |
| 1777848196 | 22.78° C | 38% | 1014.4 hPa | 0 mm | - | 319 W/m² | - |
| 1777847894 | 22.78° C | 36% | 1014.7 hPa | 0 mm | - | 340 W/m² | - |
| 1777847592 | 22.78° C | 36% | 1014.6 hPa | 0 mm | - | 360 W/m² | - |
| 1777847287 | 22.78° C | 36% | 1014.6 hPa | 0 mm | - | 381 W/m² | - |
| 1777846986 | 22.78° C | 35% | 1014.8 hPa | 0 mm | - | 402 W/m² | - |
| 1777846683 | 22.78° C | 34% | 1014.7 hPa | 0 mm | - | 420 W/m² | - |
| 1777846381 | 22.78° C | 35% | 1014.8 hPa | 0 mm | - | 441 W/m² | - |
| 1777846077 | 23.33° C | 34% | 1014.9 hPa | 0 mm | - | 470 W/m² | - |
| 1777845774 | 23.33° C | 34% | 1014.7 hPa | 0 mm | - | 492 W/m² | - |
| 1777845471 | 22.78° C | 35% | 1014.7 hPa | 0 mm | - | 512 W/m² | - |
| 1777845168 | 22.78° C | 35% | 1014.8 hPa | 0 mm | - | 535 W/m² | - |
| 1777844866 | 22.78° C | 34% | 1014.9 hPa | 0 mm | - | 557 W/m² | - |
| 1777844563 | 22.78° C | 34% | 1015.2 hPa | 0 mm | - | 579 W/m² | - |
| 1777844261 | 22.78° C | 34% | 1015.1 hPa | 0 mm | - | 600 W/m² | - |
| 1777843958 | 22.78° C | 34% | 1015.4 hPa | 0 mm | - | 620 W/m² | - |
| 1777843654 | 22.78° C | 34% | 1015.3 hPa | 0 mm | - | 641 W/m² | - |
| 1777843352 | 22.78° C | 32% | 1015.4 hPa | 0 mm | - | 657 W/m² | - |
| 1777843050 | 22.78° C | 33% | 1015.4 hPa | 0 mm | - | 676 W/m² | - |
| 1777842746 | 22.78° C | 33% | 1015.7 hPa | 0 mm | - | 691 W/m² | - |
* Rain latest hour (hover to see other rain measurements)
** Current wind speed in m/s (hover to see current wind gust speed)